Hourly Data Report for September 25, 2017

All times are specified in Local Standard Time (LST). Add 1 hour to adjust for Daylight Saving Time where and when it is observed.

BUCTOUCHE CDA CS
NEW BRUNSWICK

46°25'49.006" N
64°46'05.009" W
35.90 m
8100593
71666
ABT

Download Data

Hourly Data (September 2017)
Hourly Data Report for September 25, 2017
Temp Definition
°C
Dew Point Temp Definition
°C
Rel Hum Definition
%
Wind Dir Definition
10's deg

Wind Spd Definition
km/h
Visibility Definition
km
Stn Press Definition
kPa
Hmdx Definition


Wind Chill Definition


Weather Definition


TIME
00:00 15.8 14.1 90 35 7   101.32     LegendNANA
01:00 14.6 13.2 91 2 5   101.32     LegendNANA
02:00 14.6 13.6 93 35 4   101.34     LegendNANA
03:00 13.9 12.6 92 1 5   101.35     LegendNANA
04:00 13.4 12.4 93 3 3   101.37     LegendNANA
05:00 13.0 12.0 94 2 2   101.39     LegendNANA
06:00 13.6 12.6 94 1 2   101.46     LegendNANA
07:00 14.0 12.9 93 1 2   101.47     LegendNANA
08:00 15.7 13.8 89 12 5   101.49     LegendNANA
09:00 16.5 13.4 82 14 5   101.49     LegendNANA
10:00 17.6 13.8 79 20 4   101.51     LegendNANA
11:00 19.4 14.1 72 17 7   101.46     LegendNANA
12:00 21.3 14.3 65 14 4   101.41 25   LegendNANA
13:00 21.8 15.2 66 34 8   101.34 26   LegendNANA
14:00 22.9 15.5 63 4 8   101.22 27   LegendNANA
15:00 25.7 15.9 55 18 11   101.13 30   LegendNANA
16:00 26.4 16.3 54 20 10   101.07 31   LegendNANA
17:00 26.4 16.9 56 20 9   101.05 32   LegendNANA
18:00 23.4 17.4 69 17 5   101.04 29   LegendNANA
19:00 22.9 17.2 71 21 10   101.00 28   LegendNANA
20:00 22.9 17.0 69 21 14   101.00 28   LegendNANA
21:00 22.1 17.0 73 22 15   100.96 27   LegendNANA
22:00 21.7 16.9 75 22 18   100.92 27   LegendNANA
23:00 21.2 16.8 76 22 17   100.89 26   LegendNANA

Notes on Data Quality.

Legend

  • E = Estimated
  • M = Missing
  • NA = Not Available
  • ‡ = Partner data that is not subject to review by the National Climate Archives
Date modified: